Time,TemperatureF,DewpointF,PressureIn,WindDirection,WindDirectionDegrees,WindSpeedMPH,WindSpeedGustMPH,Humidity,HourlyPrecipIn,Conditions,Clouds,dailyrainin,SolarRadiationWatts/m^2,SoftwareType,DateUTC
2013-04-29 00:01:00,52.9,51.2,30.06,SE,125,3.0,4.0,94,0.00,,,0.00,0,Wunderground v.1.15,2013-04-29 04:01:00,
2013-04-29 00:02:00,52.9,51.2,30.06,ESE,114,3.0,4.0,94,0.00,,,0.00,0,Wunderground v.1.15,2013-04-29 04:02:00,
2013-04-29 00:04:00,52.9,51.2,30.06,SE,132,2.0,4.0,94,0.00,,,0.00,0,Wunderground v.1.15,2013-04-29 04:04:00,
2013-04-29 00:08:00,52.9,51.2,30.07,SE,142,2.0,4.0,94,0.00,,,0.00,0,Wunderground v.1.15,2013-04-29 04:08:00,
2013-04-29 00:11:00,52.9,51.5,30.06,ESE,111,2.0,7.0,95,0.00,,,0.00,0,Wunderground v.1.15,2013-04-29 04:11:00,
2013-04-29 00:17:00,52.9,51.2,30.06,SE,140,4.0,7.0,94,0.00,,,0.00,0,Wunderground v.1.15,2013-04-29 04:17:00,
2013-04-29 00:22:00,52.9,50.9,30.06,SE,135,6.0,6.0,93,0.00,,,0.00,0,Wunderground v.1.15,2013-04-29 04:22:00,
2013-04-29 00:27:00,52.9,50.9,30.06,SE,128,6.0,7.0,93,0.00,,,0.00,0,Wunderground v.1.15,2013-04-29 04:27:00,
2013-04-29 00:32:00,53.1,51.1,30.06,ESE,122,6.0,7.0,93,0.00,,,0.00,0,Wunderground v.1.15,2013-04-29 04:32:00,
2013-04-29 00:37:00,53.1,50.8,30.06,SSE,161,6.0,9.0,92,0.00,,,0.00,0,Wunderground v.1.15,2013-04-29 04:37:00,
2013-04-29 00:42:00,53.2,51.2,30.06,SE,138,5.0,6.0,93,0.00,,,0.00,0,Wunderground v.1.15,2013-04-29 04:42:00,
2013-04-29 00:47:00,53.1,51.1,30.06,South,185,4.0,8.0,93,0.00,,,0.00,0,Wunderground v.1.15,2013-04-29 04:47:00,
2013-04-29 00:52:00,53.1,51.1,30.06,SSE,167,5.0,5.0,93,0.00,,,0.00,0,Wunderground v.1.15,2013-04-29 04:52:00,
2013-04-29 00:58:00,53.1,51.1,30.06,SE,124,4.0,7.0,93,0.00,,,0.00,0,Wunderground v.1.15,2013-04-29 04:58:00,
2013-04-29 01:03:00,53.1,51.1,30.06,South,175,3.0,4.0,93,0.00,,,0.00,0,Wunderground v.1.15,2013-04-29 05:03:00,
2013-04-29 01:08:00,53.1,51.1,30.06,South,172,3.0,5.0,93,0.00,,,0.00,0,Wunderground v.1.15,2013-04-29 05:08:00,
2013-04-29 01:13:00,53.1,51.4,30.06,South,184,2.0,4.0,94,0.00,,,0.00,0,Wunderground v.1.15,2013-04-29 05:13:00,
2013-04-29 01:18:00,53.1,51.4,30.06,South,169,3.0,8.0,94,0.00,,,0.00,0,Wunderground v.1.15,2013-04-29 05:18:00,
2013-04-29 01:24:00,53.0,51.3,30.05,SE,138,4.0,4.0,94,0.00,,,0.00,0,Wunderground v.1.15,2013-04-29 05:24:00,
2013-04-29 01:29:00,53.0,51.3,30.05,SE,141,3.0,6.0,94,0.00,,,0.00,0,Wunderground v.1.15,2013-04-29 05:29:00,
2013-04-29 01:34:00,53.0,51.3,30.05,SSE,152,4.0,6.0,94,0.00,,,0.00,0,Wunderground v.1.15,2013-04-29 05:34:00,
2013-04-29 01:39:00,53.0,51.3,30.05,SE,138,4.0,6.0,94,0.00,,,0.00,0,Wunderground v.1.15,2013-04-29 05:39:00,
2013-04-29 01:44:00,53.0,51.3,30.05,South,188,4.0,7.0,94,0.00,,,0.00,0,Wunderground v.1.15,2013-04-29 05:44:00,
2013-04-29 01:49:00,53.1,51.4,30.05,SSE,150,4.0,7.0,94,0.00,,,0.00,0,Wunderground v.1.15,2013-04-29 05:49:00,
2013-04-29 01:54:00,53.0,51.3,30.05,SE,146,3.0,5.0,94,0.00,,,0.00,0,Wunderground v.1.15,2013-04-29 05:54:00,
2013-04-29 01:59:00,53.0,51.3,30.04,SSE,153,3.0,7.0,94,0.00,,,0.00,0,Wunderground v.1.15,2013-04-29 05:59:00,
2013-04-29 02:05:00,53.0,51.6,30.04,SE,138,3.0,4.0,95,0.00,,,0.00,0,Wunderground v.1.15,2013-04-29 06:05:00,
2013-04-29 02:10:00,52.9,51.5,30.04,SE,136,3.0,4.0,95,0.00,,,0.00,0,Wunderground v.1.15,2013-04-29 06:10:00,
2013-04-29 02:15:00,52.9,51.5,30.04,SE,146,4.0,7.0,95,0.00,,,0.00,0,Wunderground v.1.15,2013-04-29 06:15:00,
2013-04-29 02:21:00,52.9,51.5,30.04,SSE,153,4.0,5.0,95,0.00,,,0.00,0,Wunderground v.1.15,2013-04-29 06:21:00,
2013-04-29 02:26:00,52.9,51.8,30.03,ESE,122,3.0,5.0,96,0.00,,,0.00,0,Wunderground v.1.15,2013-04-29 06:26:00,
2013-04-29 02:32:00,52.8,52.0,30.03,SE,140,2.0,3.0,97,0.00,,,0.01,0,Wunderground v.1.15,2013-04-29 06:32:00,
2013-04-29 02:37:00,52.5,52.0,30.03,SE,146,1.0,3.0,98,0.10,,,0.02,0,Wunderground v.1.15,2013-04-29 06:37:00,
2013-04-29 02:42:00,52.2,52.2,30.03,SW,233,1.0,2.0,100,0.08,,,0.03,0,Wunderground v.1.15,2013-04-29 06:42:00,
2013-04-29 02:47:00,52.0,52.0,30.03,WSW,249,1.0,2.0,100,0.08,,,0.03,0,Wunderground v.1.15,2013-04-29 06:47:00,
2013-04-29 02:52:00,51.9,51.9,30.03,WNW,286,2.0,3.0,100,0.07,,,0.04,0,Wunderground v.1.15,2013-04-29 06:52:00,
2013-04-29 02:57:00,51.7,51.7,30.03,WNW,293,2.0,3.0,100,0.07,,,0.04,0,Wunderground v.1.15,2013-04-29 06:57:00,
2013-04-29 03:03:00,51.6,51.6,30.02,WNW,292,2.0,2.0,100,0.04,,,0.04,0,Wunderground v.1.15,2013-04-29 07:03:00,
2013-04-29 03:08:00,51.5,51.5,30.02,WNW,292,0.0,2.0,100,0.00,,,0.04,0,Wunderground v.1.15,2013-04-29 07:08:00,
2013-04-29 03:14:00,51.4,51.4,30.02,WNW,292,0.0,0.0,100,0.00,,,0.04,0,Wunderground v.1.15,2013-04-29 07:14:00,
2013-04-29 03:19:00,51.4,51.4,30.02,WNW,294,1.0,2.0,100,0.00,,,0.04,0,Wunderground v.1.15,2013-04-29 07:19:00,
2013-04-29 03:25:00,51.3,51.3,30.02,WNW,292,1.0,1.0,100,0.00,,,0.04,0,Wunderground v.1.15,2013-04-29 07:25:00,
2013-04-29 03:30:00,51.3,51.3,30.02,WNW,292,0.0,2.0,100,0.00,,,0.04,0,Wunderground v.1.15,2013-04-29 07:30:00,
2013-04-29 03:35:00,51.2,51.2,30.02,WNW,292,1.0,2.0,100,0.00,,,0.04,0,Wunderground v.1.15,2013-04-29 07:35:00,
2013-04-29 03:40:00,51.2,51.2,30.02,WNW,294,1.0,1.0,100,0.00,,,0.04,0,Wunderground v.1.15,2013-04-29 07:40:00,
2013-04-29 03:45:00,51.1,51.1,30.02,WNW,297,1.0,2.0,100,0.00,,,0.04,0,Wunderground v.1.15,2013-04-29 07:45:00,
2013-04-29 03:50:00,51.0,51.0,30.02,WNW,296,1.0,1.0,100,0.00,,,0.04,0,Wunderground v.1.15,2013-04-29 07:50:00,
2013-04-29 03:56:00,51.0,51.0,30.02,WNW,300,0.0,1.0,100,0.00,,,0.04,0,Wunderground v.1.15,2013-04-29 07:56:00,
2013-04-29 04:02:00,51.0,51.0,30.02,WNW,296,1.0,1.0,100,0.00,,,0.04,0,Wunderground v.1.15,2013-04-29 08:02:00,
2013-04-29 04:07:00,51.0,51.0,30.02,NNE,27,2.0,3.0,100,0.00,,,0.04,0,Wunderground v.1.15,2013-04-29 08:07:00,
2013-04-29 04:12:00,50.9,50.9,30.01,NNE,27,2.0,2.0,100,0.00,,,0.04,0,Wunderground v.1.15,2013-04-29 08:12:00,
2013-04-29 04:17:00,50.9,50.9,30.01,NNE,26,1.0,2.0,100,0.00,,,0.04,0,Wunderground v.1.15,2013-04-29 08:17:00,
2013-04-29 04:22:00,50.8,50.8,30.02,NNE,26,1.0,1.0,100,0.00,,,0.04,0,Wunderground v.1.15,2013-04-29 08:22:00,
2013-04-29 04:27:00,50.8,50.8,30.02,NNE,26,1.0,2.0,100,0.00,,,0.04,0,Wunderground v.1.15,2013-04-29 08:27:00,
2013-04-29 04:32:00,50.8,50.8,30.02,NNE,28,0.0,0.0,100,0.00,,,0.04,0,Wunderground v.1.15,2013-04-29 08:32:00,
2013-04-29 04:38:00,50.8,50.8,30.02,NNE,28,0.0,0.0,100,0.00,,,0.04,0,Wunderground v.1.15,2013-04-29 08:38:00,
2013-04-29 04:43:00,50.7,50.7,30.02,NNE,30,0.0,0.0,100,0.00,,,0.04,0,Wunderground v.1.15,2013-04-29 08:43:00,
2013-04-29 04:48:00,50.7,50.7,30.01,NNE,29,0.0,0.0,100,0.00,,,0.04,0,Wunderground v.1.15,2013-04-29 08:48:00,
2013-04-29 04:53:00,50.7,50.7,30.01,NNE,25,0.0,1.0,100,0.00,,,0.04,0,Wunderground v.1.15,2013-04-29 08:53:00,
2013-04-29 04:58:00,50.6,50.6,30.01,NNE,27,0.0,1.0,100,0.00,,,0.04,0,Wunderground v.1.15,2013-04-29 08:58:00,
2013-04-29 05:03:00,50.6,50.6,30.01,NNE,27,0.0,1.0,100,0.00,,,0.04,0,Wunderground v.1.15,2013-04-29 09:03:00,
2013-04-29 05:08:00,50.6,50.6,30.01,NNE,26,1.0,1.0,100,0.00,,,0.04,0,Wunderground v.1.15,2013-04-29 09:08:00,
2013-04-29 05:13:00,50.6,50.6,30.01,NNE,27,0.0,1.0,100,0.00,,,0.04,0,Wunderground v.1.15,2013-04-29 09:13:00,
2013-04-29 05:19:00,50.6,50.6,30.01,NNE,28,0.0,1.0,100,0.00,,,0.04,0,Wunderground v.1.15,2013-04-29 09:19:00,
2013-04-29 05:25:00,50.5,50.5,30.01,NNE,27,0.0,2.0,100,0.00,,,0.04,0,Wunderground v.1.15,2013-04-29 09:25:00,
2013-04-29 05:30:00,50.5,50.5,30.01,NNE,28,1.0,2.0,100,0.00,,,0.04,0,Wunderground v.1.15,2013-04-29 09:30:00,
2013-04-29 05:35:00,50.5,50.5,30.01,NNE,26,1.0,2.0,100,0.00,,,0.04,0,Wunderground v.1.15,2013-04-29 09:35:00,
2013-04-29 05:40:00,50.4,50.4,30.01,NNE,28,1.0,1.0,100,0.00,,,0.04,0,Wunderground v.1.15,2013-04-29 09:40:00,
2013-04-29 05:45:00,50.4,50.4,30.01,NNE,28,1.0,2.0,100,0.00,,,0.04,0,Wunderground v.1.15,2013-04-29 09:45:00,
2013-04-29 05:50:00,50.4,50.4,30.01,NNE,27,1.0,1.0,100,0.00,,,0.04,0,Wunderground v.1.15,2013-04-29 09:50:00,
2013-04-29 05:55:00,50.3,50.3,30.01,NNE,28,1.0,3.0,100,0.00,,,0.04,0,Wunderground v.1.15,2013-04-29 09:55:00,
2013-04-29 06:00:00,50.4,50.4,30.01,North,9,2.0,2.0,100,0.00,,,0.04,0,Wunderground v.1.15,2013-04-29 10:00:00,
2013-04-29 06:06:00,50.3,50.3,30.01,North,11,2.0,3.0,100,0.00,,,0.04,0,Wunderground v.1.15,2013-04-29 10:06:00,
2013-04-29 06:11:00,50.3,50.3,30.01,North,11,2.0,3.0,100,0.00,,,0.04,0,Wunderground v.1.15,2013-04-29 10:11:00,
2013-04-29 06:16:00,50.2,50.2,30.01,NNE,13,2.0,3.0,100,0.00,,,0.04,0,Wunderground v.1.15,2013-04-29 10:16:00,
2013-04-29 06:21:00,50.2,50.2,30.02,NE,35,2.0,3.0,100,0.00,,,0.04,0,Wunderground v.1.15,2013-04-29 10:21:00,
2013-04-29 06:26:00,50.1,50.1,30.02,NNE,32,3.0,4.0,100,0.00,,,0.04,0,Wunderground v.1.15,2013-04-29 10:26:00,
2013-04-29 06:31:00,50.1,50.1,30.02,NE,35,3.0,3.0,100,0.00,,,0.04,0,Wunderground v.1.15,2013-04-29 10:31:00,
2013-04-29 06:37:00,50.1,50.1,30.02,NNE,32,2.0,3.0,100,0.00,,,0.04,7,Wunderground v.1.15,2013-04-29 10:37:00,
2013-04-29 06:42:00,50.1,50.1,30.02,NE,34,2.0,4.0,100,0.00,,,0.04,11,Wunderground v.1.15,2013-04-29 10:42:00,
2013-04-29 06:47:00,50.2,50.2,30.03,NE,34,2.0,4.0,100,0.00,,,0.04,12,Wunderground v.1.15,2013-04-29 10:47:00,
2013-04-29 06:52:00,50.2,50.2,30.03,NE,35,2.0,3.0,100,0.00,,,0.04,16,Wunderground v.1.15,2013-04-29 10:52:00,
2013-04-29 06:57:00,50.2,50.2,30.03,NE,35,2.0,3.0,100,0.00,,,0.04,16,Wunderground v.1.15,2013-04-29 10:57:00,
2013-04-29 07:03:00,50.2,50.2,30.03,NE,34,1.0,3.0,100,0.00,,,0.04,19,Wunderground v.1.15,2013-04-29 11:03:00,
2013-04-29 07:08:00,50.3,50.3,30.03,NE,34,1.0,3.0,100,0.00,,,0.04,23,Wunderground v.1.15,2013-04-29 11:08:00,
2013-04-29 07:13:00,50.3,50.3,30.04,NE,35,1.0,1.0,100,0.00,,,0.04,19,Wunderground v.1.15,2013-04-29 11:13:00,
2013-04-29 07:18:00,50.3,50.3,30.04,NE,34,1.0,2.0,100,0.00,,,0.04,19,Wunderground v.1.15,2013-04-29 11:18:00,
2013-04-29 07:23:00,50.4,50.4,30.04,NE,34,1.0,1.0,100,0.00,,,0.04,23,Wunderground v.1.15,2013-04-29 11:23:00,
2013-04-29 07:28:00,50.4,50.4,30.04,NE,35,1.0,3.0,100,0.00,,,0.04,21,Wunderground v.1.15,2013-04-29 11:28:00,
2013-04-29 07:33:00,50.4,50.4,30.04,NE,34,1.0,3.0,100,0.00,,,0.04,18,Wunderground v.1.15,2013-04-29 11:33:00,
2013-04-29 07:38:00,50.4,50.4,30.04,NE,36,1.0,3.0,100,0.00,,,0.04,28,Wunderground v.1.15,2013-04-29 11:38:00,
2013-04-29 07:43:00,50.5,50.5,30.04,NNE,33,0.0,2.0,100,0.00,,,0.04,35,Wunderground v.1.15,2013-04-29 11:43:00,
2013-04-29 07:49:00,50.5,50.5,30.04,NNE,32,0.0,2.0,100,0.00,,,0.04,51,Wunderground v.1.15,2013-04-29 11:49:00,
2013-04-29 07:54:00,50.6,50.6,30.04,NE,34,0.0,3.0,100,0.00,,,0.04,67,Wunderground v.1.15,2013-04-29 11:54:00,
2013-04-29 07:59:00,50.7,50.7,30.04,NE,34,1.0,3.0,100,0.00,,,0.04,65,Wunderground v.1.15,2013-04-29 11:59:00,
2013-04-29 08:04:00,50.8,50.8,30.05,NE,49,2.0,4.0,100,0.00,,,0.04,76,Wunderground v.1.15,2013-04-29 12:04:00,
2013-04-29 08:09:00,50.9,50.9,30.04,NE,49,2.0,4.0,100,0.00,,,0.04,69,Wunderground v.1.15,2013-04-29 12:09:00,
2013-04-29 08:15:00,51.0,51.0,30.04,NE,49,2.0,3.0,100,0.00,,,0.04,81,Wunderground v.1.15,2013-04-29 12:15:00,
2013-04-29 08:20:00,51.1,51.1,30.05,NE,47,2.0,2.0,100,0.00,,,0.04,74,Wunderground v.1.15,2013-04-29 12:20:00,
2013-04-29 08:25:00,51.2,51.2,30.05,NE,49,1.0,2.0,100,0.00,,,0.04,93,Wunderground v.1.15,2013-04-29 12:25:00,
2013-04-29 08:30:00,51.3,51.3,30.05,NE,47,0.0,0.0,100,0.00,,,0.04,93,Wunderground v.1.15,2013-04-29 12:30:00,
2013-04-29 08:35:00,51.5,51.5,30.05,NE,50,1.0,2.0,100,0.00,,,0.04,79,Wunderground v.1.15,2013-04-29 12:35:00,
2013-04-29 08:40:00,51.6,51.6,30.05,NE,48,1.0,3.0,100,0.00,,,0.04,88,Wunderground v.1.15,2013-04-29 12:40:00,
2013-04-29 08:46:00,51.6,51.6,30.05,NE,48,2.0,4.0,100,0.00,,,0.04,134,Wunderground v.1.15,2013-04-29 12:46:00,
2013-04-29 08:51:00,51.7,51.7,30.05,NE,51,2.0,3.0,100,0.00,,,0.04,111,Wunderground v.1.15,2013-04-29 12:51:00,
2013-04-29 08:57:00,51.9,51.9,30.05,NE,51,2.0,3.0,100,0.00,,,0.04,181,Wunderground v.1.15,2013-04-29 12:57:00,
2013-04-29 09:02:00,52.1,52.1,30.05,NE,49,2.0,4.0,100,0.00,,,0.04,202,Wunderground v.1.15,2013-04-29 13:02:00,
2013-04-29 09:07:00,52.4,52.4,30.05,NE,47,2.0,4.0,100,0.00,,,0.04,176,Wunderground v.1.15,2013-04-29 13:07:00,
2013-04-29 09:13:00,52.6,52.6,30.05,NE,47,2.0,2.0,100,0.00,,,0.04,163,Wunderground v.1.15,2013-04-29 13:13:00,
2013-04-29 09:19:00,52.8,52.5,30.05,NE,39,3.0,6.0,99,0.00,,,0.04,193,Wunderground v.1.15,2013-04-29 13:19:00,
2013-04-29 09:24:00,53.0,53.0,30.05,NE,45,3.0,4.0,100,0.00,,,0.04,209,Wunderground v.1.15,2013-04-29 13:24:00,
2013-04-29 09:29:00,53.2,52.9,30.04,ENE,67,3.0,5.0,99,0.00,,,0.04,251,Wunderground v.1.15,2013-04-29 13:29:00,
2013-04-29 09:34:00,53.3,52.8,30.04,ENE,67,3.0,3.0,98,0.00,,,0.04,241,Wunderground v.1.15,2013-04-29 13:34:00,
2013-04-29 09:39:00,53.4,52.8,30.04,ENE,61,2.0,4.0,98,0.00,,,0.04,278,Wunderground v.1.15,2013-04-29 13:39:00,
2013-04-29 09:44:00,53.5,52.9,30.04,ENE,63,2.0,3.0,98,0.00,,,0.04,294,Wunderground v.1.15,2013-04-29 13:44:00,
2013-04-29 09:49:00,53.7,53.1,30.04,NE,53,2.0,3.0,98,0.00,,,0.04,316,Wunderground v.1.15,2013-04-29 13:49:00,
2013-04-29 09:54:00,54.0,53.2,30.03,NE,53,2.0,3.0,97,0.00,,,0.04,330,Wunderground v.1.15,2013-04-29 13:54:00,
2013-04-29 09:59:00,54.3,53.5,30.03,NE,53,2.0,4.0,97,0.00,,,0.04,336,Wunderground v.1.15,2013-04-29 13:59:00,
2013-04-29 10:05:00,54.6,53.8,30.03,NE,56,2.0,4.0,97,0.00,,,0.04,308,Wunderground v.1.15,2013-04-29 14:05:00,
2013-04-29 10:10:00,54.8,53.4,30.03,North,355,2.0,2.0,95,0.00,,,0.04,316,Wunderground v.1.15,2013-04-29 14:10:00,
2013-04-29 10:15:00,55.1,54.0,30.03,NE,47,2.0,4.0,96,0.00,,,0.04,246,Wunderground v.1.15,2013-04-29 14:15:00,
2013-04-29 10:20:00,55.3,53.9,30.03,NE,48,1.0,1.0,95,0.00,,,0.04,251,Wunderground v.1.15,2013-04-29 14:20:00,
2013-04-29 10:25:00,55.4,54.0,30.03,NE,46,0.0,1.0,95,0.00,,,0.04,227,Wunderground v.1.15,2013-04-29 14:25:00,
2013-04-29 10:30:00,55.4,54.0,30.03,NE,44,0.0,0.0,95,0.00,,,0.04,223,Wunderground v.1.15,2013-04-29 14:30:00,
2013-04-29 10:36:00,55.5,53.5,30.03,NE,43,0.0,0.0,93,0.00,,,0.04,315,Wunderground v.1.15,2013-04-29 14:36:00,
2013-04-29 10:41:00,55.8,53.8,30.03,NE,44,0.0,0.0,93,0.00,,,0.04,420,Wunderground v.1.15,2013-04-29 14:41:00,
2013-04-29 10:46:00,56.0,53.7,30.03,NE,46,0.0,1.0,92,0.00,,,0.04,431,Wunderground v.1.15,2013-04-29 14:46:00,
2013-04-29 10:51:00,56.4,55.0,30.03,NE,45,0.0,0.0,95,0.00,,,0.04,388,Wunderground v.1.15,2013-04-29 14:51:00,
2013-04-29 10:57:00,56.7,54.7,30.03,NE,49,1.0,3.0,93,0.00,,,0.04,397,Wunderground v.1.15,2013-04-29 14:57:00,
2013-04-29 11:03:00,56.9,54.6,30.03,NE,45,1.0,2.0,92,0.00,,,0.04,339,Wunderground v.1.15,2013-04-29 15:03:00,
2013-04-29 11:08:00,57.1,54.5,30.03,NE,47,1.0,2.0,91,0.00,,,0.04,299,Wunderground v.1.15,2013-04-29 15:08:00,
2013-04-29 11:13:00,57.3,55.0,30.03,NE,47,1.0,2.0,92,0.00,,,0.04,225,Wunderground v.1.15,2013-04-29 15:13:00,
2013-04-29 11:18:00,57.3,54.4,30.03,NE,47,1.0,2.0,90,0.00,,,0.04,197,Wunderground v.1.15,2013-04-29 15:18:00,
2013-04-29 11:23:00,57.4,54.2,30.03,NE,46,0.0,1.0,89,0.00,,,0.04,185,Wunderground v.1.15,2013-04-29 15:23:00,
2013-04-29 11:29:00,57.5,54.3,30.03,NE,49,1.0,2.0,89,0.00,,,0.04,162,Wunderground v.1.15,2013-04-29 15:29:00,
2013-04-29 11:34:00,57.4,54.8,30.03,NE,45,1.0,3.0,91,0.00,,,0.04,178,Wunderground v.1.15,2013-04-29 15:34:00,
2013-04-29 11:39:00,57.3,54.7,30.03,NE,46,2.0,4.0,91,0.00,,,0.04,176,Wunderground v.1.15,2013-04-29 15:39:00,
2013-04-29 11:44:00,57.3,54.7,30.03,NE,47,2.0,2.0,91,0.00,,,0.04,197,Wunderground v.1.15,2013-04-29 15:44:00,
2013-04-29 11:49:00,57.4,55.1,30.03,NE,49,1.0,2.0,92,0.00,,,0.04,241,Wunderground v.1.15,2013-04-29 15:49:00,
2013-04-29 11:54:00,57.7,55.4,30.03,NE,48,0.0,1.0,92,0.00,,,0.04,218,Wunderground v.1.15,2013-04-29 15:54:00,
2013-04-29 11:59:00,57.9,55.6,30.03,NE,48,0.0,1.0,92,0.00,,,0.04,262,Wunderground v.1.15,2013-04-29 15:59:00,
2013-04-29 12:05:00,58.0,55.4,30.03,NE,46,0.0,0.0,91,0.00,,,0.04,234,Wunderground v.1.15,2013-04-29 16:05:00,
2013-04-29 12:10:00,58.1,55.5,30.03,NE,47,0.0,0.0,91,0.00,,,0.04,227,Wunderground v.1.15,2013-04-29 16:10:00,
2013-04-29 12:15:00,58.1,55.5,30.03,NE,48,0.0,1.0,91,0.00,,,0.04,199,Wunderground v.1.15,2013-04-29 16:15:00,
2013-04-29 12:20:00,58.2,55.6,30.03,NE,49,0.0,0.0,91,0.00,,,0.04,220,Wunderground v.1.15,2013-04-29 16:20:00,
2013-04-29 12:25:00,58.3,55.7,30.03,NE,44,0.0,0.0,91,0.00,,,0.04,206,Wunderground v.1.15,2013-04-29 16:25:00,
2013-04-29 12:30:00,58.3,55.4,30.03,NE,48,0.0,0.0,90,0.00,,,0.04,220,Wunderground v.1.15,2013-04-29 16:30:00,
2013-04-29 12:35:00,58.3,55.7,30.03,NE,48,0.0,0.0,91,0.00,,,0.04,216,Wunderground v.1.15,2013-04-29 16:35:00,
2013-04-29 12:40:00,58.4,56.1,30.02,NE,45,0.0,0.0,92,0.00,,,0.04,216,Wunderground v.1.15,2013-04-29 16:40:00,
2013-04-29 12:45:00,58.5,56.2,30.03,NE,49,0.0,0.0,92,0.00,,,0.04,234,Wunderground v.1.15,2013-04-29 16:45:00,
2013-04-29 12:50:00,58.5,56.5,30.02,NE,49,0.0,0.0,93,0.00,,,0.05,306,Wunderground v.1.15,2013-04-29 16:50:00,
2013-04-29 12:55:00,58.6,57.8,30.02,NE,47,0.0,0.0,97,0.00,,,0.05,432,Wunderground v.1.15,2013-04-29 16:55:00,
2013-04-29 13:00:00,58.7,57.0,30.02,NE,47,0.0,0.0,94,0.00,,,0.05,475,Wunderground v.1.15,2013-04-29 17:00:00,
2013-04-29 13:06:00,58.7,56.7,30.02,NE,47,0.0,0.0,93,0.00,,,0.05,492,Wunderground v.1.15,2013-04-29 17:06:00,
2013-04-29 13:11:00,58.9,57.5,30.02,NE,48,0.0,0.0,95,0.00,,,0.05,631,Wunderground v.1.15,2013-04-29 17:11:00,
2013-04-29 13:16:00,59.1,58.2,30.01,NE,46,0.0,2.0,97,0.00,,,0.05,626,Wunderground v.1.15,2013-04-29 17:16:00,
2013-04-29 13:22:00,59.4,57.7,30.01,NE,47,1.0,1.0,94,0.00,,,0.05,552,Wunderground v.1.15,2013-04-29 17:22:00,
2013-04-29 13:27:00,59.6,57.9,30.01,NE,48,1.0,1.0,94,0.00,,,0.05,619,Wunderground v.1.15,2013-04-29 17:27:00,
2013-04-29 13:32:00,59.8,57.8,30.01,NE,54,1.0,2.0,93,0.00,,,0.05,527,Wunderground v.1.15,2013-04-29 17:32:00,
2013-04-29 13:37:00,60.0,58.0,30.01,NE,55,1.0,2.0,93,0.00,,,0.05,380,Wunderground v.1.15,2013-04-29 17:37:00,
2013-04-29 13:42:00,60.2,58.5,30.01,ESE,109,2.0,3.0,94,0.00,,,0.05,455,Wunderground v.1.15,2013-04-29 17:42:00,
2013-04-29 13:47:00,60.5,58.8,30.01,ESE,108,2.0,3.0,94,0.00,,,0.05,490,Wunderground v.1.15,2013-04-29 17:47:00,
2013-04-29 13:52:00,60.3,57.7,30.01,ENE,64,2.0,3.0,91,0.00,,,0.05,425,Wunderground v.1.15,2013-04-29 17:52:00,
2013-04-29 13:57:00,60.0,57.4,30.01,NE,56,2.0,3.0,91,0.00,,,0.05,450,Wunderground v.1.15,2013-04-29 17:57:00,
2013-04-29 14:03:00,60.0,57.7,30.01,ENE,66,2.0,4.0,92,0.00,,,0.05,360,Wunderground v.1.15,2013-04-29 18:03:00,
2013-04-29 14:08:00,60.0,57.4,30.01,ENE,65,2.0,4.0,91,0.00,,,0.05,274,Wunderground v.1.15,2013-04-29 18:08:00,
2013-04-29 14:13:00,60.1,57.5,30.00,ENE,65,2.0,3.0,91,0.00,,,0.05,309,Wunderground v.1.15,2013-04-29 18:13:00,
2013-04-29 14:18:00,60.3,57.7,30.01,NE,41,2.0,3.0,91,0.00,,,0.05,322,Wunderground v.1.15,2013-04-29 18:18:00,
2013-04-29 14:23:00,60.4,57.8,30.00,NE,41,2.0,3.0,91,0.00,,,0.05,299,Wunderground v.1.15,2013-04-29 18:23:00,
2013-04-29 14:28:00,60.5,57.6,30.00,ENE,61,2.0,3.0,90,0.00,,,0.05,313,Wunderground v.1.15,2013-04-29 18:28:00,
2013-04-29 14:33:00,60.6,57.7,30.00,ENE,59,2.0,3.0,90,0.00,,,0.05,272,Wunderground v.1.15,2013-04-29 18:33:00,
2013-04-29 14:38:00,60.6,57.3,30.00,ENE,57,1.0,3.0,89,0.00,,,0.05,209,Wunderground v.1.15,2013-04-29 18:38:00,
2013-04-29 14:43:00,60.7,57.7,30.00,ENE,58,1.0,2.0,90,0.00,,,0.05,207,Wunderground v.1.15,2013-04-29 18:43:00,
2013-04-29 14:48:00,60.7,57.4,30.00,ENE,60,1.0,4.0,89,0.00,,,0.05,169,Wunderground v.1.15,2013-04-29 18:48:00,
2013-04-29 14:53:00,60.7,57.1,30.00,NE,44,2.0,4.0,88,0.00,,,0.05,144,Wunderground v.1.15,2013-04-29 18:53:00,
2013-04-29 14:58:00,60.7,57.1,30.00,NNE,25,3.0,4.0,88,0.00,,,0.05,156,Wunderground v.1.15,2013-04-29 18:58:00,
2013-04-29 15:04:00,60.5,57.2,30.00,NNE,27,2.0,4.0,89,0.00,,,0.05,142,Wunderground v.1.15,2013-04-29 19:04:00,
2013-04-29 15:09:00,60.6,57.3,30.00,NE,51,2.0,4.0,89,0.00,,,0.05,144,Wunderground v.1.15,2013-04-29 19:09:00,
2013-04-29 15:14:00,60.6,57.3,30.00,NE,51,2.0,4.0,89,0.00,,,0.05,151,Wunderground v.1.15,2013-04-29 19:14:00,
2013-04-29 15:19:00,60.7,57.1,30.00,NNE,22,4.0,7.0,88,0.00,,,0.05,199,Wunderground v.1.15,2013-04-29 19:19:00,
2013-04-29 15:24:00,60.8,57.5,29.99,ENE,65,5.0,7.0,89,0.00,,,0.05,276,Wunderground v.1.15,2013-04-29 19:24:00,
2013-04-29 15:29:00,60.9,57.3,29.99,NNE,32,4.0,7.0,88,0.00,,,0.05,332,Wunderground v.1.15,2013-04-29 19:29:00,
2013-04-29 15:34:00,61.1,57.5,29.99,NNE,28,4.0,5.0,88,0.00,,,0.05,313,Wunderground v.1.15,2013-04-29 19:34:00,
2013-04-29 15:39:00,61.3,57.7,29.99,NNE,28,4.0,5.0,88,0.00,,,0.05,304,Wunderground v.1.15,2013-04-29 19:39:00,
2013-04-29 15:44:00,61.5,57.6,29.99,North,5,4.0,6.0,87,0.00,,,0.05,292,Wunderground v.1.15,2013-04-29 19:44:00,
2013-04-29 15:49:00,61.5,57.9,29.99,NE,36,3.0,6.0,88,0.00,,,0.05,232,Wunderground v.1.15,2013-04-29 19:49:00,
2013-04-29 15:54:00,61.6,57.7,29.99,NNE,31,4.0,6.0,87,0.00,,,0.05,195,Wunderground v.1.15,2013-04-29 19:54:00,
2013-04-29 15:59:00,61.6,57.7,29.99,NNW,348,4.0,7.0,87,0.00,,,0.05,199,Wunderground v.1.15,2013-04-29 19:59:00,
2013-04-29 16:04:00,61.6,58.0,29.99,NE,44,3.0,4.0,88,0.00,,,0.05,137,Wunderground v.1.15,2013-04-29 20:04:00,
2013-04-29 16:09:00,61.4,57.5,29.99,NNW,348,4.0,7.0,87,0.00,,,0.05,102,Wunderground v.1.15,2013-04-29 20:09:00,
2013-04-29 16:14:00,61.2,57.3,29.99,ENE,63,4.0,5.0,87,0.00,,,0.05,107,Wunderground v.1.15,2013-04-29 20:14:00,
2013-04-29 16:19:00,61.1,57.5,29.99,NNE,32,4.0,6.0,88,0.00,,,0.05,151,Wunderground v.1.15,2013-04-29 20:19:00,
2013-04-29 16:24:00,61.1,57.5,29.98,NNE,28,4.0,7.0,88,0.00,,,0.05,171,Wunderground v.1.15,2013-04-29 20:24:00,
2013-04-29 16:29:00,61.2,57.9,29.98,NNE,27,4.0,7.0,89,0.00,,,0.05,162,Wunderground v.1.15,2013-04-29 20:29:00,
2013-04-29 16:34:00,61.2,57.6,29.98,North,9,3.0,4.0,88,0.00,,,0.05,158,Wunderground v.1.15,2013-04-29 20:34:00,
2013-04-29 16:39:00,61.1,57.5,29.98,NNE,19,4.0,5.0,88,0.00,,,0.05,167,Wunderground v.1.15,2013-04-29 20:39:00,
2013-04-29 16:44:00,61.2,58.2,29.98,NE,50,4.0,5.0,90,0.00,,,0.05,162,Wunderground v.1.15,2013-04-29 20:44:00,
2013-04-29 16:50:00,61.1,57.8,29.98,NE,51,2.0,3.0,89,0.00,,,0.05,156,Wunderground v.1.15,2013-04-29 20:50:00,
2013-04-29 16:55:00,61.1,57.5,29.98,NE,36,3.0,7.0,88,0.00,,,0.05,153,Wunderground v.1.15,2013-04-29 20:55:00,
2013-04-29 17:00:00,61.0,57.7,29.98,NE,36,5.0,5.0,89,0.00,,,0.05,132,Wunderground v.1.15,2013-04-29 21:00:00,
2013-04-29 17:06:00,61.1,57.8,29.98,NE,49,3.0,5.0,89,0.00,,,0.05,114,Wunderground v.1.15,2013-04-29 21:06:00,
2013-04-29 17:11:00,60.9,57.6,29.98,NNE,22,3.0,8.0,89,0.00,,,0.05,135,Wunderground v.1.15,2013-04-29 21:11:00,
2013-04-29 17:16:00,60.8,57.5,29.98,NE,51,5.0,8.0,89,0.00,,,0.05,135,Wunderground v.1.15,2013-04-29 21:16:00,
2013-04-29 17:21:00,60.8,57.8,29.98,NE,49,3.0,4.0,90,0.00,,,0.05,135,Wunderground v.1.15,2013-04-29 21:21:00,
2013-04-29 17:26:00,60.7,57.7,29.98,NNE,16,3.0,4.0,90,0.00,,,0.05,135,Wunderground v.1.15,2013-04-29 21:26:00,
2013-04-29 17:31:00,60.8,58.2,29.98,NE,34,3.0,5.0,91,0.00,,,0.05,139,Wunderground v.1.15,2013-04-29 21:31:00,
2013-04-29 17:37:00,60.7,57.7,29.98,NE,38,3.0,5.0,90,0.00,,,0.05,100,Wunderground v.1.15,2013-04-29 21:37:00,
2013-04-29 17:43:00,60.7,58.1,29.98,NE,44,2.0,3.0,91,0.00,,,0.05,83,Wunderground v.1.15,2013-04-29 21:43:00,
2013-04-29 17:48:00,60.6,58.0,29.98,North,360,2.0,4.0,91,0.00,,,0.05,79,Wunderground v.1.15,2013-04-29 21:48:00,
2013-04-29 17:53:00,60.4,57.8,29.99,NNE,13,4.0,6.0,91,0.00,,,0.05,60,Wunderground v.1.15,2013-04-29 21:53:00,
2013-04-29 17:58:00,60.3,57.7,29.99,North,349,5.0,8.0,91,0.00,,,0.05,54,Wunderground v.1.15,2013-04-29 21:58:00,
2013-04-29 18:03:00,60.2,57.6,29.99,NNE,30,4.0,5.0,91,0.00,,,0.05,54,Wunderground v.1.15,2013-04-29 22:03:00,
2013-04-29 18:08:00,60.1,57.8,29.99,NNE,17,4.0,6.0,92,0.00,,,0.05,37,Wunderground v.1.15,2013-04-29 22:08:00,
2013-04-29 18:13:00,60.0,57.4,29.99,North,360,4.0,6.0,91,0.00,,,0.05,26,Wunderground v.1.15,2013-04-29 22:13:00,
2013-04-29 18:18:00,59.8,57.5,29.99,NNE,31,4.0,7.0,92,0.00,,,0.05,25,Wunderground v.1.15,2013-04-29 22:18:00,
2013-04-29 18:23:00,59.7,57.4,29.99,NE,37,4.0,9.0,92,0.00,,,0.05,28,Wunderground v.1.15,2013-04-29 22:23:00,
2013-04-29 18:29:00,59.5,57.5,29.99,North,5,4.0,9.0,93,0.00,,,0.05,26,Wunderground v.1.15,2013-04-29 22:29:00,
2013-04-29 18:34:00,59.4,57.4,29.99,NNE,29,5.0,8.0,93,0.00,,,0.05,30,Wunderground v.1.15,2013-04-29 22:34:00,
2013-04-29 18:39:00,59.2,57.5,29.99,NNE,23,5.0,8.0,94,0.00,,,0.05,33,Wunderground v.1.15,2013-04-29 22:39:00,
2013-04-29 18:44:00,59.2,57.5,29.99,NE,54,4.0,6.0,94,0.00,,,0.05,33,Wunderground v.1.15,2013-04-29 22:44:00,
2013-04-29 18:49:00,59.0,57.6,29.99,NNE,19,3.0,6.0,95,0.00,,,0.05,28,Wunderground v.1.15,2013-04-29 22:49:00,
2013-04-29 18:54:00,58.9,57.5,30.00,NNE,30,4.0,8.0,95,0.00,,,0.05,28,Wunderground v.1.15,2013-04-29 22:54:00,
2013-04-29 18:59:00,58.7,57.6,30.00,NE,51,5.0,8.0,96,0.00,,,0.05,25,Wunderground v.1.15,2013-04-29 22:59:00,
2013-04-29 19:04:00,58.7,57.9,30.00,NNE,31,4.0,5.0,97,0.00,,,0.05,21,Wunderground v.1.15,2013-04-29 23:04:00,
2013-04-29 19:09:00,58.6,57.8,30.00,NE,46,3.0,7.0,97,0.00,,,0.05,19,Wunderground v.1.15,2013-04-29 23:09:00,
2013-04-29 19:14:00,58.5,57.7,30.00,NE,38,4.0,6.0,97,0.00,,,0.05,19,Wunderground v.1.15,2013-04-29 23:14:00,
2013-04-29 19:19:00,58.3,57.7,30.00,NE,38,3.0,6.0,98,0.00,,,0.05,18,Wunderground v.1.15,2013-04-29 23:19:00,
2013-04-29 19:24:00,58.2,57.9,30.00,NE,34,3.0,4.0,99,0.00,,,0.05,16,Wunderground v.1.15,2013-04-29 23:24:00,
2013-04-29 19:30:00,58.0,57.7,30.00,NNE,21,3.0,3.0,99,0.00,,,0.05,12,Wunderground v.1.15,2013-04-29 23:30:00,
2013-04-29 19:35:00,57.9,57.6,30.01,North,9,3.0,4.0,99,0.00,,,0.05,9,Wunderground v.1.15,2013-04-29 23:35:00,
2013-04-29 19:40:00,57.8,57.8,30.00,NNE,28,3.0,3.0,100,0.00,,,0.05,5,Wunderground v.1.15,2013-04-29 23:40:00,
2013-04-29 19:45:00,57.7,57.7,30.01,NE,37,2.0,3.0,100,0.00,,,0.05,0,Wunderground v.1.15,2013-04-29 23:45:00,
2013-04-29 19:50:00,57.6,57.6,30.01,NE,37,1.0,2.0,100,0.00,,,0.05,0,Wunderground v.1.15,2013-04-29 23:50:00,
2013-04-29 19:55:00,57.4,57.4,30.01,NE,44,2.0,6.0,100,0.00,,,0.05,0,Wunderground v.1.15,2013-04-29 23:55:00,
2013-04-29 20:00:00,57.3,57.3,30.01,NE,42,3.0,3.0,100,0.00,,,0.06,0,Wunderground v.1.15,2013-04-30 00:00:00,
2013-04-29 20:06:00,57.2,57.2,30.01,NE,36,3.0,5.0,100,0.00,,,0.06,0,Wunderground v.1.15,2013-04-30 00:06:00,
2013-04-29 20:12:00,57.1,57.1,30.01,NE,56,3.0,3.0,100,0.00,,,0.06,0,Wunderground v.1.15,2013-04-30 00:12:00,
2013-04-29 20:17:00,57.1,57.1,30.02,NNE,27,3.0,4.0,100,0.00,,,0.06,0,Wunderground v.1.15,2013-04-30 00:17:00,
2013-04-29 20:22:00,57.0,57.0,30.02,NNE,32,3.0,3.0,100,0.00,,,0.06,0,Wunderground v.1.15,2013-04-30 00:22:00,
2013-04-29 20:27:00,56.9,56.9,30.02,NE,53,2.0,4.0,100,0.00,,,0.06,0,Wunderground v.1.15,2013-04-30 00:27:00,
2013-04-29 20:32:00,56.9,56.9,30.02,NE,50,1.0,2.0,100,0.00,,,0.06,0,Wunderground v.1.15,2013-04-30 00:32:00,
2013-04-29 20:37:00,56.8,56.8,30.02,NE,51,1.0,2.0,100,0.00,,,0.06,0,Wunderground v.1.15,2013-04-30 00:37:00,
2013-04-29 20:43:00,56.7,56.7,30.02,NE,53,2.0,2.0,100,0.00,,,0.07,0,Wunderground v.1.15,2013-04-30 00:43:00,
2013-04-29 20:48:00,56.7,56.7,30.03,NE,43,2.0,3.0,100,0.00,,,0.07,0,Wunderground v.1.15,2013-04-30 00:48:00,
2013-04-29 20:54:00,56.7,56.7,30.03,NE,54,2.0,3.0,100,0.00,,,0.07,0,Wunderground v.1.15,2013-04-30 00:54:00,
2013-04-29 20:59:00,56.6,56.6,30.03,NE,50,2.0,3.0,100,0.00,,,0.07,0,Wunderground v.1.15,2013-04-30 00:59:00,
2013-04-29 21:05:00,56.5,56.5,30.03,NE,51,2.0,4.0,100,0.00,,,0.07,0,Wunderground v.1.15,2013-04-30 01:05:00,
2013-04-29 21:10:00,56.5,56.5,30.03,NE,51,1.0,4.0,100,0.00,,,0.07,0,Wunderground v.1.15,2013-04-30 01:10:00,
2013-04-29 21:15:00,56.5,56.5,30.03,NE,49,2.0,4.0,100,0.00,,,0.07,0,Wunderground v.1.15,2013-04-30 01:15:00,
2013-04-29 21:20:00,56.5,56.5,30.04,NNE,28,2.0,2.0,100,0.00,,,0.07,0,Wunderground v.1.15,2013-04-30 01:20:00,
2013-04-29 21:25:00,56.4,56.4,30.04,NE,49,2.0,4.0,100,0.00,,,0.07,0,Wunderground v.1.15,2013-04-30 01:25:00,
2013-04-29 21:30:00,56.4,56.4,30.04,NE,36,2.0,3.0,100,0.00,,,0.07,0,Wunderground v.1.15,2013-04-30 01:30:00,
2013-04-29 21:36:00,56.4,56.4,30.04,NNE,24,3.0,4.0,100,0.00,,,0.08,0,Wunderground v.1.15,2013-04-30 01:36:00,
2013-04-29 21:41:00,56.4,56.4,30.04,NNE,31,3.0,3.0,100,0.00,,,0.08,0,Wunderground v.1.15,2013-04-30 01:41:00,
2013-04-29 21:46:00,56.4,56.4,30.04,NNE,32,1.0,3.0,100,0.00,,,0.08,0,Wunderground v.1.15,2013-04-30 01:46:00,
2013-04-29 21:52:00,56.4,56.4,30.05,North,5,1.0,2.0,100,0.00,,,0.08,0,Wunderground v.1.15,2013-04-30 01:52:00,
2013-04-29 21:57:00,56.4,56.4,30.05,NNE,17,1.0,2.0,100,0.00,,,0.08,0,Wunderground v.1.15,2013-04-30 01:57:00,
2013-04-29 22:02:00,56.3,56.3,30.05,NNE,21,1.0,1.0,100,0.00,,,0.08,0,Wunderground v.1.15,2013-04-30 02:02:00,
2013-04-29 22:07:00,56.3,56.3,30.05,NNE,19,1.0,1.0,100,0.00,,,0.08,0,Wunderground v.1.15,2013-04-30 02:07:00,
2013-04-29 22:12:00,56.3,56.3,30.05,ENE,60,1.0,3.0,100,0.00,,,0.08,0,Wunderground v.1.15,2013-04-30 02:12:00,
2013-04-29 22:18:00,56.3,56.3,30.05,NNE,23,1.0,3.0,100,0.00,,,0.08,0,Wunderground v.1.15,2013-04-30 02:18:00,
2013-04-29 22:23:00,56.3,56.3,30.05,NNE,32,1.0,3.0,100,0.00,,,0.08,0,Wunderground v.1.15,2013-04-30 02:23:00,
2013-04-29 22:28:00,56.3,56.3,30.05,NNE,30,2.0,3.0,100,0.00,,,0.09,0,Wunderground v.1.15,2013-04-30 02:28:00,
2013-04-29 22:33:00,56.3,56.3,30.05,NNE,32,1.0,2.0,100,0.00,,,0.09,0,Wunderground v.1.15,2013-04-30 02:33:00,
2013-04-29 22:38:00,56.3,56.3,30.05,NNE,31,1.0,2.0,100,0.00,,,0.09,0,Wunderground v.1.15,2013-04-30 02:38:00,
2013-04-29 22:43:00,56.3,56.3,30.05,North,355,2.0,4.0,100,0.00,,,0.09,0,Wunderground v.1.15,2013-04-30 02:43:00,
2013-04-29 22:48:00,56.3,56.3,30.05,North,360,3.0,6.0,100,0.00,,,0.09,0,Wunderground v.1.15,2013-04-30 02:48:00,
2013-04-29 22:53:00,56.3,56.3,30.05,NNE,24,3.0,4.0,100,0.00,,,0.09,0,Wunderground v.1.15,2013-04-30 02:53:00,
2013-04-29 22:58:00,56.2,56.2,30.05,North,11,3.0,5.0,100,0.00,,,0.09,0,Wunderground v.1.15,2013-04-30 02:58:00,
2013-04-29 23:04:00,56.2,56.2,30.05,NNE,22,4.0,4.0,100,0.00,,,0.09,0,Wunderground v.1.15,2013-04-30 03:04:00,
2013-04-29 23:09:00,56.1,56.1,30.05,NE,55,3.0,4.0,100,0.00,,,0.09,0,Wunderground v.1.15,2013-04-30 03:09:00,
2013-04-29 23:14:00,56.0,56.0,30.05,ENE,71,2.0,4.0,100,0.00,,,0.09,0,Wunderground v.1.15,2013-04-30 03:14:00,
2013-04-29 23:19:00,56.0,56.0,30.05,ENE,61,2.0,4.0,100,0.00,,,0.09,0,Wunderground v.1.15,2013-04-30 03:19:00,
2013-04-29 23:24:00,56.0,56.0,30.05,ENE,78,2.0,5.0,100,0.00,,,0.09,0,Wunderground v.1.15,2013-04-30 03:24:00,
2013-04-29 23:29:00,55.9,55.9,30.05,NE,49,3.0,5.0,100,0.00,,,0.09,0,Wunderground v.1.15,2013-04-30 03:29:00,
2013-04-29 23:34:00,55.9,55.9,30.06,NE,40,3.0,7.0,100,0.00,,,0.09,0,Wunderground v.1.15,2013-04-30 03:34:00,
2013-04-29 23:39:00,55.9,55.9,30.06,NNE,33,3.0,7.0,100,0.00,,,0.09,0,Wunderground v.1.15,2013-04-30 03:39:00,
2013-04-29 23:44:00,55.9,55.9,30.06,NE,40,3.0,5.0,100,0.00,,,0.09,0,Wunderground v.1.15,2013-04-30 03:44:00,
2013-04-29 23:49:00,55.8,55.8,30.06,ENE,63,4.0,6.0,100,0.00,,,0.09,0,Wunderground v.1.15,2013-04-30 03:49:00,
2013-04-29 23:54:00,55.8,55.8,30.06,NNE,30,4.0,4.0,100,0.00,,,0.09,0,Wunderground v.1.15,2013-04-30 03:54:00,
2013-04-29 23:59:00,55.7,55.7,30.06,ENE,66,3.0,7.0,100,0.00,,,0.00,0,Wunderground v.1.15,2013-04-30 03:59:00,